• In Netherlands
  • List of Countries
  • For 7 days
  • Water Temperature
  • Satellite Maps
  • Weather Map
  • Weather Widgets
  • user-avatar
    Login

    Hourly Weather Corozal

    Today, 25 May, Thursday

    Time Temperature Precipitation Wind Pressure Humidity
    00:00 +27°C° 0.7 mm 1 mps 757 mmHg 97%
    01:00 +27°C° 0 mm 1 mps 756 mmHg 97%
    02:00 +27°C° 0 mm 1 mps 756 mmHg 98%
    03:00 +27°C° 0 mm 1 mps 756 mmHg 99%
    04:00 +27°C° 0.3 mm 1 mps 756 mmHg 98%
    05:00 +28°C° 0.3 mm 1 mps 756 mmHg 98%
    06:00 +28°C° 0.3 mm 1 mps 756 mmHg 97%
    07:00 +30°C° 0 mm 1 mps 757 mmHg 87%
    08:00 +32°C° 0 mm 2 mps 757 mmHg 77%
    09:00 +35°C° 0 mm 2 mps 757 mmHg 67%
    10:00 +37°C° 0 mm 2 mps 757 mmHg 59%
    11:00 +38°C° 0 mm 2 mps 757 mmHg 51%
    12:00 +40°C° 0 mm 3 mps 757 mmHg 43%
    13:00 +40°C° 0.1 mm 3 mps 756 mmHg 43%
    14:00 +40°C° 0.1 mm 3 mps 756 mmHg 44%
    15:00 +39°C° 0.1 mm 3 mps 755 mmHg 44%
    16:00 +38°C° 0 mm 3 mps 755 mmHg 51%
    17:00 +36°C° 0 mm 3 mps 755 mmHg 58%
    18:00 +34°C° 0 mm 3 mps 755 mmHg 64%
    19:00 +33°C° 0 mm 3 mps 756 mmHg 72%
    20:00 +31°C° 0 mm 3 mps 757 mmHg 79%
    21:00 +29°C° 0 mm 3 mps 758 mmHg 87%
    22:00 +29°C° 0 mm 3 mps 758 mmHg 88%
    23:00 +29°C° 0 mm 3 mps 758 mmHg 89%

    Tomorrow, 26 May, Friday

    Time Temperature Precipitation Wind Pressure Humidity
    00:00 +29°C° 0 mm 2 mps 759 mmHg 90%
    01:00 +29°C° 0 mm 2 mps 758 mmHg 90%
    02:00 +29°C° 0 mm 2 mps 758 mmHg 89%
    03:00 +29°C° 0 mm 2 mps 758 mmHg 89%
    04:00 +29°C° 0 mm 2 mps 758 mmHg 88%
    05:00 +29°C° 0 mm 2 mps 758 mmHg 87%
    06:00 +29°C° 0 mm 2 mps 758 mmHg 86%
    07:00 +30°C° 0.1 mm 2 mps 759 mmHg 81%
    08:00 +33°C° 0.1 mm 3 mps 759 mmHg 75%
    09:00 +34°C° 0.1 mm 3 mps 759 mmHg 69%
    10:00 +35°C° 0.3 mm 3 mps 759 mmHg 63%
    11:00 +36°C° 0.3 mm 4 mps 759 mmHg 57%
    12:00 +37°C° 0.3 mm 4 mps 759 mmHg 51%
    13:00 +37°C° 0.1 mm 4 mps 758 mmHg 51%
    14:00 +37°C° 0.1 mm 4 mps 757 mmHg 50%
    15:00 +37°C° 0.1 mm 4 mps 757 mmHg 49%
    16:00 +36°C° 0.1 mm 4 mps 757 mmHg 56%
    17:00 +34°C° 0.1 mm 4 mps 757 mmHg 62%
    18:00 +33°C° 0.1 mm 4 mps 758 mmHg 68%
    19:00 +32°C° 0.5 mm 4 mps 758 mmHg 73%
    20:00 +30°C° 0.5 mm 3 mps 759 mmHg 78%
    21:00 +29°C° 0.5 mm 3 mps 759 mmHg 82%
    22:00 +29°C° 0.4 mm 3 mps 759 mmHg 83%
    23:00 +29°C° 0.4 mm 3 mps 760 mmHg 85%

    Day after tomorrow, 27 May, Saturday

    Time Temperature Precipitation Wind Pressure Humidity
    00:00 +29°C° 0.4 mm 3 mps 760 mmHg 86%
    01:00 +29°C° 0 mm 3 mps 759 mmHg 87%
    02:00 +29°C° 0 mm 3 mps 759 mmHg 88%
    03:00 +29°C° 0 mm 3 mps 758 mmHg 88%
    04:00 +29°C° 0.2 mm 3 mps 759 mmHg 88%
    05:00 +29°C° 0.2 mm 3 mps 759 mmHg 88%
    06:00 +29°C° 0.2 mm 3 mps 759 mmHg 87%
    07:00 +30°C° 0.1 mm 3 mps 760 mmHg 84%
    08:00 +30°C° 0.1 mm 3 mps 760 mmHg 80%
    09:00 +32°C° 0.1 mm 4 mps 760 mmHg 76%
    10:00 +34°C° 0.1 mm 4 mps 760 mmHg 68%
    11:00 +35°C° 0.1 mm 4 mps 760 mmHg 61%
    12:00 +36°C° 0.1 mm 4 mps 760 mmHg 53%
    13:00 +37°C° 0 mm 4 mps 759 mmHg 51%
    14:00 +37°C° 0 mm 5 mps 759 mmHg 48%
    15:00 +37°C° 0 mm 5 mps 758 mmHg 46%
    16:00 +35°C° 0 mm 4 mps 758 mmHg 52%
    17:00 +34°C° 0 mm 4 mps 758 mmHg 59%
    18:00 +32°C° 0 mm 4 mps 759 mmHg 65%
    19:00 +30°C° 0 mm 3 mps 759 mmHg 73%
    20:00 +29°C° 0 mm 3 mps 760 mmHg 81%
    21:00 +27°C° 0 mm 3 mps 760 mmHg 89%
    22:00 +27°C° 0 mm 2 mps 760 mmHg 91%
    23:00 +27°C° 0 mm 2 mps 760 mmHg 94%

    28 May, Sunday

    Time Temperature Precipitation Wind Pressure Humidity
    00:00 +26°C° 0 mm 2 mps 760 mmHg 96%
    01:00 +26°C° 0 mm 2 mps 759 mmHg 96%
    02:00 +26°C° 0 mm 2 mps 759 mmHg 96%
    03:00 +26°C° 0 mm 2 mps 758 mmHg 96%
    04:00 +27°C° 0 mm 2 mps 759 mmHg 93%
    05:00 +27°C° 0 mm 2 mps 759 mmHg 90%
    06:00 +28°C° 0 mm 2 mps 760 mmHg 88%
    07:00 +29°C° 0 mm 2 mps 760 mmHg 79%
    08:00 +31°C° 0 mm 3 mps 760 mmHg 71%
    09:00 +33°C° 0 mm 3 mps 761 mmHg 62%
    10:00 +35°C° 0 mm 3 mps 760 mmHg 56%
    11:00 +36°C° 0 mm 4 mps 760 mmHg 50%
    12:00 +37°C° 0 mm 4 mps 759 mmHg 44%
    13:00 +37°C° 0 mm 4 mps 759 mmHg 44%
    14:00 +37°C° 0 mm 4 mps 758 mmHg 45%
    15:00 +37°C° 0 mm 4 mps 758 mmHg 45%
    16:00 +35°C° 0 mm 4 mps 758 mmHg 52%
    17:00 +34°C° 0 mm 3 mps 758 mmHg 59%
    18:00 +31°C° 0 mm 3 mps 759 mmHg 66%
    19:00 +30°C° 0 mm 3 mps 759 mmHg 73%
    20:00 +29°C° 0 mm 3 mps 760 mmHg 79%
    21:00 +28°C° 0 mm 2 mps 760 mmHg 86%
    22:00 +27°C° 0 mm 2 mps 760 mmHg 88%
    23:00 +27°C° 0 mm 2 mps 760 mmHg 91%

    29 May, Monday

    Time Temperature Precipitation Wind Pressure Humidity
    00:00 +27°C° 0 mm 2 mps 760 mmHg 94%
    01:00 +27°C° 0 mm 2 mps 759 mmHg 92%
    02:00 +27°C° 0 mm 2 mps 759 mmHg 89%
    03:00 +28°C° 0 mm 2 mps 758 mmHg 87%
    04:00 +28°C° 0 mm 2 mps 758 mmHg 86%
    05:00 +28°C° 0 mm 2 mps 759 mmHg 85%
    06:00 +28°C° 0 mm 2 mps 759 mmHg 84%
    07:00 +29°C° 0 mm 3 mps 760 mmHg 78%
    08:00 +30°C° 0.1 mm 3 mps 760 mmHg 73%
    09:00 +31°C° 0.1 mm 3 mps 760 mmHg 67%
    10:00 +34°C° 0.2 mm 3 mps 760 mmHg 60%
    11:00 +35°C° 0.2 mm 4 mps 760 mmHg 54%
    12:00 +37°C° 0.2 mm 4 mps 760 mmHg 47%
    13:00 +37°C° 0 mm 4 mps 759 mmHg 47%
    14:00 +37°C° 0 mm 4 mps 759 mmHg 46%
    15:00 +36°C° 0 mm 4 mps 758 mmHg 46%
    16:00 +35°C° 0 mm 4 mps 759 mmHg 52%
    17:00 +34°C° 0 mm 4 mps 759 mmHg 58%
    18:00 +31°C° 0 mm 3 mps 759 mmHg 65%
    19:00 +30°C° 0 mm 3 mps 760 mmHg 71%
    20:00 +29°C° 0 mm 3 mps 760 mmHg 78%
    21:00 +27°C° 0 mm 3 mps 761 mmHg 85%
    22:00 +27°C° 0 mm 2 mps 761 mmHg 86%
    23:00 +27°C° 0 mm 2 mps 760 mmHg 87%

    30 May, Tuesday

    Time Temperature Precipitation Wind Pressure Humidity
    00:00 +27°C° 0 mm 2 mps 760 mmHg 88%
    01:00 +27°C° 0 mm 2 mps 760 mmHg 87%
    02:00 +27°C° 0 mm 2 mps 760 mmHg 87%
    03:00 +27°C° 0 mm 2 mps 759 mmHg 86%
    04:00 +28°C° 0 mm 2 mps 759 mmHg 85%
    05:00 +28°C° 0 mm 2 mps 760 mmHg 84%
    06:00 +28°C° 0 mm 2 mps 760 mmHg 83%
    07:00 +29°C° 0.3 mm 3 mps 760 mmHg 76%
    08:00 +31°C° 0.3 mm 3 mps 760 mmHg 68%
    09:00 +33°C° 0.3 mm 4 mps 761 mmHg 61%
    10:00 +34°C° 0.3 mm 4 mps 760 mmHg 56%
    11:00 +35°C° 0.3 mm 4 mps 760 mmHg 51%
    12:00 +36°C° 0.3 mm 4 mps 760 mmHg 47%
    13:00 +36°C° 0.1 mm 4 mps 759 mmHg 46%
    14:00 +36°C° 0.1 mm 4 mps 759 mmHg 46%
    15:00 +36°C° 0.1 mm 4 mps 758 mmHg 46%
    16:00 +35°C° 0 mm 4 mps 759 mmHg 51%
    17:00 +34°C° 0 mm 4 mps 759 mmHg 56%
    18:00 +31°C° 0 mm 3 mps 759 mmHg 62%
    19:00 +30°C° 0 mm 3 mps 759 mmHg 70%
    20:00 +28°C° 0 mm 3 mps 760 mmHg 78%
    21:00 +27°C° 0 mm 2 mps 760 mmHg 86%
    22:00 +27°C° 0 mm 2 mps 760 mmHg 87%
    23:00 +26°C° 0 mm 2 mps 760 mmHg 89%
    Show more